Location: Breungeshain
(50.5000°N, 9.2000°E)
Time: 09:47:57
(UTC+00:00)

ISS - Pass Details

Date: 22 May 2017
Orbit: 402 x 409 km, 51.6° (Epoch: 24 May)

Event Time Altitude Azimuth Distance (km) Brightness Sun altitude
Exits shadow 21:42:43 15° 90° (E) 1,218 -1.7 -15.8°
Drops below altitude 10° 21:43:25 10° 84° (E) 1,469 -1.2 -15.8°
Sets 21:45:38 0° 74° (ENE) 2,331 0.0 -16.0°
